Epoch = 2003 Oct. 8.0 TT T = 2003 Oct. 19.98067 TT Peri. = 177.04018 e = 0.5353642 Node = 91.99047 2000.0 q = 1.6039128 AU Incl. = 26.59335 a = 3.4519788 AU n = 0.15367453 P = 6.41 years
m1 = 16.0 + 5 logΔ + 10.0 log r